Location: Newark
(19.2431°N, 110.4642°E)
Time: 13:18:40
(UTC+00:00)

OTV 5 (USA 277) - Visible Passes

Search period start: 23 August 2019 00:00
Search period end: 02 September 2019 00:00
Orbit: 305 x 329 km, 54.5° (Epoch: 20 August)

Date Brightness Start Highest point End Pass type
(mag) Time Alt. Az. Time Alt. Az. Time Alt. Az.
23 Aug ? 11:33:35 10° SSW 11:36:17 78° SE 11:38:59 10° NE visible
23 Aug ? 21:11:30 10° NNW 21:13:54 32° NE 21:16:19 10° ESE visible
24 Aug ? 11:48:41 10° WSW 11:50:49 20° NW 11:52:57 10° N visible
24 Aug ? 21:27:22 26° WNW 21:28:24 39° SW 21:30:52 10° SSE visible
